{"data":{"norad_id":53473,"epoch":"2026-09-20T05:52:58.238400Z","epoch_age_seconds":100203,"freshness":"FRESH","line1":"1 53473U 22099J   26263.24511850 -.00000218  00000+0 -37461-5 0  9997","line2":"2 53473  97.4912  29.2236 0001536  94.4679 265.6741 15.36975312225758","mean_motion":15.36975312,"eccentricity":0.0001536,"inclination_deg":97.4912,"raan_deg":29.2236,"arg_perigee_deg":94.4679,"mean_anomaly_deg":265.6741,"bstar":-3.7461e-6,"rev_number":22575,"period_min":93.690509454325,"perigee_km":454.00998109005,"apogee_km":456.10913907331,"semimajor_km":6833.1965600817,"source":"CELESTRAK","updated_at":"2026-09-21T09:00:32.887960Z"}}